TimeMST,TemperatureF,Dew PointF,Humidity,Sea Level PressureIn,VisibilityMPH,Wind Direction,Wind SpeedMPH,Gust SpeedMPH,PrecipitationIn,Events,Conditions,WindDirDegrees,DateUTC
12:53 AM,30.9,12.9,47,30.26,10.0,WNW,11.5,-,N/A,,Overcast,290,2013-02-16 07:53:00
1:53 AM,28.9,12.0,49,30.26,10.0,WNW,10.4,-,N/A,,Mostly Cloudy,300,2013-02-16 08:53:00
2:53 AM,30.0,12.9,49,30.22,10.0,NW,16.1,20.7,N/A,,Clear,310,2013-02-16 09:53:00
3:53 AM,30.0,12.0,47,30.20,10.0,WNW,12.7,18.4,N/A,,Clear,300,2013-02-16 10:53:00
4:53 AM,30.9,12.0,46,30.17,10.0,WNW,21.9,28.8,N/A,,Clear,290,2013-02-16 11:53:00
5:53 AM,30.9,10.9,43,30.19,10.0,NW,9.2,16.1,N/A,,Clear,320,2013-02-16 12:53:00
6:53 AM,30.0,10.9,45,30.21,10.0,Variable,5.8,-,N/A,,Clear,0,2013-02-16 13:53:00
7:53 AM,33.1,12.0,42,30.22,10.0,WNW,8.1,-,N/A,,Clear,300,2013-02-16 14:53:00
8:53 AM,37.0,12.0,36,30.17,10.0,WNW,23.0,33.4,N/A,,Clear,300,2013-02-16 15:53:00
9:53 AM,41.0,12.0,31,30.16,10.0,NW,21.9,29.9,N/A,,Clear,310,2013-02-16 16:53:00
10:53 AM,43.0,12.0,28,30.14,10.0,NW,25.3,36.8,N/A,,Clear,310,2013-02-16 17:53:00
11:53 AM,46.0,12.9,26,30.08,10.0,WNW,21.9,31.1,N/A,,Clear,290,2013-02-16 18:53:00
12:53 PM,48.0,12.9,24,30.04,10.0,WNW,20.7,35.7,N/A,,Clear,290,2013-02-16 19:53:00
1:53 PM,48.0,12.0,24,30.03,10.0,NW,24.2,34.5,N/A,,Clear,320,2013-02-16 20:53:00
2:53 PM,48.0,16.0,28,30.02,10.0,NW,15.0,24.2,N/A,,Clear,320,2013-02-16 21:53:00
3:53 PM,46.0,14.0,28,30.02,10.0,NW,18.4,28.8,N/A,,Clear,320,2013-02-16 22:53:00
4:53 PM,44.1,14.0,30,30.01,10.0,NNW,15.0,-,N/A,,Clear,340,2013-02-16 23:53:00
5:53 PM,39.0,14.0,36,30.04,10.0,NNW,8.1,-,N/A,,Clear,330,2013-02-17 00:53:00
6:53 PM,35.1,10.9,37,30.05,10.0,West,10.4,-,N/A,,Clear,280,2013-02-17 01:53:00
7:53 PM,30.9,10.0,42,30.04,10.0,WNW,6.9,-,N/A,,Clear,300,2013-02-17 02:53:00
8:53 PM,28.9,10.0,45,30.03,10.0,WSW,11.5,-,N/A,,Clear,250,2013-02-17 03:53:00
9:53 PM,37.9,8.1,29,29.94,10.0,WSW,18.4,27.6,N/A,,Clear,250,2013-02-17 04:53:00
10:53 PM,36.0,7.0,30,29.92,10.0,Variable,3.5,-,N/A,,Clear,0,2013-02-17 05:53:00
11:53 PM,35.1,8.1,33,29.89,10.0,WSW,19.6,-,N/A,,Clear,240,2013-02-17 06:53:00